Location: Little Chesterford
(52.0500°N, 0.1833°E)
Time: 19:19:50
(UTC+00:00)

Cosmos 2333 Rocket - Pass Details

Date: 26 September 2023
Orbit: 837 x 864 km, 70.8° (Epoch: 09 December)

Event Time Altitude Azimuth Distance (km) Brightness Sun altitude
Rises 20:57:56 0° 259° (WSW) 3,390 5.9 -27.9°
Reaches altitude 10° 21:00:53 10° 273° (W) 2,461 5.2 -28.2°
Maximum altitude 21:05:19 23° 325° (NW) 1,728 4.5 -28.8°
Drops below altitude 10° 21:09:47 10° 17° (NNE) 2,481 4.9 -29.3°
Sets 21:12:47 0° 32° (NNE) 3,424 5.5 -29.6°
